Theta_e
308 310 312 312 315 315 316 317 316 316 318 317 316 317 317 318 320 323 324 324 325 322 320 318 319 318 316 315 315 315 315 315 317 315 315 320 324 326 328 331 331 333 334
309 311 311 312 314 315 316 316 317 318 318 316 318 318 317 320 320 321 326 327 325 323 323 320 319 317 315 314 315 315 314 315 316 313 313 310 315 324 327 330 330 332 334
308 311 311 311 313 316 316 317 317 318 318 318 318 318 318 319 319 319 320 321 323 324 324 322 319 317 316 314 314 315 316 314 317 317 315 312 308 319 326 328 330 331 330
309 312 312 310 313 315 317 318 318 317 317 319 317 316 316 315 316 317 318 319 322 323 323 321 319 317 316 314 315 317 316 316 315 317 321 318 318 315 316 325 327 330 328
309 311 311 312 313 314 317 317 318 316 318 318 317 318 315 316 317 317 316 317 319 322 322 320 319 317 316 315 317 317 317 317 316 318 320 321 319 321 321 317 321 326 328
308 310 311 312 312 314 316 316 316 317 318 318 318 317 316 315 314 315 315 315 317 320 320 321 318 317 316 318 317 317 318 318 318 321 322 321 319 319 320 320 320 321 324
309 310 310 310 311 313 315 314 314 315 317 319 319 317 317 316 314 314 315 314 315 315 316 318 317 317 318 318 318 318 318 317 319 321 321 322 321 324 323 323 320 319 323
309 310 311 311 311 313 314 315 314 315 314 316 318 316 318 315 314 318 316 315 315 315 316 319 319 320 321 320 319 319 319 319 319 321 321 323 324 325 326 322 321 317 319
309 311 311 310 311 312 312 314 313 312 312 316 318 317 318 316 316 316 316 316 316 318 318 319 319 321 320 320 320 320 323 324 323 322 325 326 325 325 326 325 324 319 315
309 311 311 309 310 312 312 312 315 313 312 315 317 320 321 319 317 317 317 316 317 318 318 319 319 320 320 321 321 322 325 326 326 323 325 325 324 324 325 324 324 322 320
310 311 310 309 310 310 310 310 314 312 313 315 315 322 321 321 319 318 318 318 317 319 319 319 320 319 320 320 320 323 325 326 325 326 324 324 324 323 324 324 324 322 322
310 311 310 308 307 308 307 309 313 312 313 315 315 321 322 321 319 318 318 318 318 319 321 321 321 321 320 320 322 323 324 325 324 325 325 324 324 323 324 324 322 322 323
308 308 308 309 308 307 307 311 312 312 312 314 316 321 320 320 319 318 319 319 319 320 321 322 321 321 321 321 320 322 323 324 325 325 325 324 324 323 324 323 323 324 324
310 309 309 309 308 308 309 311 312 312 313 313 319 319 319 320 319 319 319 320 321 321 321 321 323 322 322 322 321 321 322 323 324 325 326 325 324 324 323 323 323 324 323
309 310 309 308 308 307 309 311 313 311 313 313 318 318 318 320 320 319 319 321 321 321 322 323 324 323 323 323 320 320 320 322 323 325 326 325 323 322 322 324 323 323 322
310 311 311 309 309 310 310 311 312 310 312 313 318 319 318 321 321 318 319 320 320 321 322 322 322 321 324 305 312 321 324 324 323 324 324 323 320 318 314 316 316 321 322
311 311 311 310 310 311 312 310 311 310 312 313 317 319 319 321 320 319 319 318 315 316 318 319 319 320 317 304 306 313 325 324 323 324 324 325 324 322 323 313 313 314 311
312 312 313 312 310 311 312 311 310 312 313 311 315 316 318 319 319 318 317 313 313 314 314 315 316 319 318 304 305 311 325 323 323 324 325 324 323 323 322 321 320 318 318
313 314 315 314 311 310 312 311 309 312 313 312 313 314 319 316 316 316 315 312 312 311 312 313 315 317 316 302 302 316 323 322 321 323 323 325 323 307 307 318 314 309 308
314 314 315 314 311 310 312 311 308 312 312 313 314 313 319 317 316 316 314 312 311 311 313 312 313 310 314 300 302 315 320 317 317 318 317 309 317 300 300 314 309 306 304
313 314 314 312 311 311 312 311 308 311 314 315 314 312 317 318 316 315 315 313 312 311 309 311 309 309 311 308 300 306 319 317 313 314 311 310 300 298 298 304 310 307 305
312 314 314 312 312 312 313 311 308 311 314 314 314 312 314 321 318 316 315 314 312 309 308 307 307 307 304 302 300 301 307 307 312 311 311 305 296 296 296 302 299 297 302
313 315 314 311 312 312 314 312 311 309 311 312 312 310 312 315 319 316 315 315 313 310 309 308 307 307 304 300 297 298 299 301 309 311 306 296 294 294 296 294 294 297 307
313 315 314 311 310 313 314 314 312 310 310 310 310 311 312 313 318 319 318 318 315 313 313 310 307 306 305 301 297 302 304 302 304 300 297 296 296 296 296 296 299 303 308
314 316 314 312 312 313 314 315 313 311 309 309 308 308 312 314 318 319 318 319 319 317 316 316 314 309 307 304 298 299 302 306 303 296 295 295 296 294 294 292 295 302 306
316 316 315 314 313 314 314 314 316 313 311 309 308 307 311 315 319 319 311 297 300 302 301 303 311 314 306 298 295 294 294 294 293 297 295 294 295 297 295 295 297 299 303
Wind_Speed
2 7 11 13 13 9 9 8 9 7 4 2 2 1 3 2 2 3 5 5 4 4 5 4 4 4 4 4 4 3 4 3 2 2 2 3 3 3 3 4 3 4 4
4 7 11 13 13 12 9 8 8 7 4 2 2 2 2 3 2 2 3 4 5 6 5 5 4 5 3 4 5 4 3 2 4 3 3 2 3 3 1 2 4 5 4
12 13 15 13 10 12 10 9 8 8 4 4 2 1 1 1 2 2 2 1 3 4 5 5 5 5 4 4 4 5 5 4 1 3 4 3 2 2 1 3 4 6 5
7 12 15 10 12 9 8 8 8 7 5 6 2 2 2 1 1 2 1 1 1 2 3 4 5 5 3 5 5 4 3 4 4 1 1 2 4 3 3 2 3 7 7
10 14 14 12 7 8 8 7 7 6 6 5 4 3 1 1 1 1 2 1 2 0 2 4 4 4 2 4 5 5 4 3 4 4 3 2 1 1 4 3 4 5 7
10 9 9 9 7 7 7 7 8 6 6 4 3 4 3 3 1 0 1 1 1 2 1 3 3 2 2 4 4 4 5 4 2 2 4 2 3 3 4 3 5 6 5
11 14 15 10 8 8 8 7 7 6 4 4 5 4 5 4 3 2 1 1 1 1 2 2 3 2 1 3 4 4 4 4 2 3 3 2 3 5 6 3 5 3 4
9 12 13 11 9 9 8 8 8 5 5 5 5 3 5 3 2 1 1 2 2 3 2 3 3 3 4 3 4 3 3 3 3 5 4 3 3 8 7 4 6 5 3
11 13 11 9 9 9 9 9 7 4 5 6 5 4 4 4 3 3 2 2 3 2 3 3 3 3 4 3 5 4 5 5 5 5 6 5 4 5 8 6 5 4 4
9 10 9 9 7 8 7 6 7 8 5 6 5 4 5 5 4 3 4 3 3 2 3 3 3 3 4 5 5 6 6 6 6 5 9 7 5 7 6 6 7 4 5
12 12 9 8 8 7 7 7 6 6 5 5 3 5 5 5 4 3 3 3 3 3 3 3 5 5 5 5 7 6 6 7 8 8 8 9 8 7 7 7 7 7 6
12 10 11 9 8 8 7 7 6 6 6 4 4 4 5 5 4 4 4 3 4 3 4 5 5 5 5 5 8 8 6 7 8 8 10 10 8 9 8 7 8 7 5
9 8 8 10 9 8 7 7 7 7 6 5 5 5 5 5 4 4 4 3 4 4 4 5 6 6 6 6 6 9 9 6 6 7 8 10 10 9 8 8 8 7 7
13 11 9 9 9 9 8 7 6 6 6 5 6 6 5 5 5 5 5 4 4 5 5 4 6 6 6 6 6 8 10 5 5 6 8 8 9 11 11 8 8 8 8
12 13 12 10 9 8 7 7 6 7 6 6 6 6 5 4 6 5 5 5 4 3 5 6 5 5 5 4 6 6 7 7 6 6 6 6 8 11 8 7 8 10 7
15 14 12 11 11 11 10 7 7 7 7 7 7 5 6 5 6 6 5 5 5 4 5 5 6 6 3 9 10 8 6 6 6 7 8 9 12 11 13 12 10 8 8
17 16 17 15 13 12 11 9 8 7 7 7 6 6 6 6 6 6 5 4 5 4 5 6 6 6 6 9 10 11 5 6 5 7 8 8 7 9 8 7 8 6 1
17 16 15 13 12 10 9 8 8 8 8 7 7 6 6 6 6 6 6 5 3 5 5 5 6 7 6 11 11 10 5 6 6 7 7 9 8 6 6 5 4 1 3
19 15 14 15 12 13 11 10 9 9 9 8 7 7 6 7 6 6 6 3 5 3 4 4 6 8 6 7 10 7 5 5 6 5 6 8 7 8 9 5 3 1 1
14 15 13 12 12 12 11 12 11 11 11 9 9 7 7 7 7 7 7 3 3 5 5 6 5 7 6 8 11 8 4 5 4 3 5 5 6 10 10 6 6 6 3
16 13 14 15 16 13 13 13 12 14 14 11 8 8 8 10 7 7 5 6 5 5 4 5 4 6 6 7 9 12 5 5 4 4 3 3 8 10 10 7 6 5 7
13 15 14 14 13 14 15 14 15 14 12 11 10 8 8 8 7 8 5 6 7 6 5 5 3 2 4 6 9 10 8 8 6 5 3 4 8 10 10 8 7 10 8
17 16 15 14 14 15 17 16 14 12 12 12 11 8 8 7 9 8 7 5 6 6 5 5 4 3 2 2 3 7 11 10 5 4 7 10 9 11 7 8 10 8 5
15 14 14 14 14 15 16 17 14 14 14 13 12 9 10 7 6 6 7 7 6 5 6 5 5 4 4 4 2 3 4 7 7 8 6 5 5 5 7 6 3 4 5
13 15 16 15 16 16 16 13 14 15 14 13 11 10 10 11 8 7 7 8 8 10 8 6 6 6 5 6 9 9 6 5 6 8 4 3 3 4 3 3 4 4 5
14 14 15 15 15 16 15 14 15 16 15 12 10 9 9 8 8 7 3 8 3 11 11 12 9 5 10 13 16 13 9 14 17 4 4 4 5 5 6 5 4 2 4
Wind_Direction
151 149 144 144 143 146 147 163 149 180 145 179 215 298 258 285 278 239 235 222 204 220 206 219 223 182 199 198 188 154 178 200 141 115 43 32 17 273 168 165 164 127 121
105 134 146 151 158 150 156 153 162 169 174 165 207 179 221 259 256 281 253 222 218 227 211 202 206 186 177 183 175 172 139 174 182 140 99 74 5 12 112 117 134 121 108
177 162 161 155 149 155 160 159 168 168 177 190 129 75 316 337 2 327 287 265 233 237 193 196 192 181 172 182 181 175 163 154 150 220 134 133 186 92 112 167 117 133 108
144 159 158 155 158 164 147 150 159 163 185 179 146 162 185 277 259 264 291 322 282 160 178 192 178 170 171 186 189 183 179 142 148 150 170 171 139 151 151 114 148 104 107
157 160 154 150 162 140 154 156 156 170 188 168 144 158 168 209 316 302 61 354 348 130 156 169 145 154 166 198 185 174 183 168 151 151 148 119 128 113 119 118 145 107 114
117 115 122 140 141 132 140 145 160 188 188 165 174 165 151 137 181 212 81 3 314 30 106 128 139 127 201 162 149 155 162 178 172 149 133 163 162 145 113 118 102 115 109
125 140 155 153 143 150 151 155 166 192 175 192 172 161 154 151 186 184 166 118 126 101 151 120 118 73 105 127 134 155 157 176 186 140 122 147 178 123 78 124 109 96 111
139 158 160 156 153 156 157 163 179 183 170 193 185 149 156 161 186 155 133 170 128 150 176 118 102 90 80 108 140 113 113 107 101 99 100 116 125 121 117 123 132 109 85
156 160 159 157 154 158 167 172 177 173 186 188 173 172 157 173 161 114 108 147 120 156 158 138 108 79 89 104 109 101 102 109 99 99 99 110 89 113 143 138 140 128 129
145 161 156 158 163 164 167 171 178 185 190 171 195 172 162 185 159 127 135 136 125 141 142 137 120 97 100 103 89 98 115 112 100 99 105 105 94 97 111 118 111 82 115
167 165 156 164 164 157 158 177 182 179 187 175 201 166 149 174 168 147 156 167 146 155 148 140 125 128 119 99 91 89 101 103 104 98 100 101 109 105 104 108 113 113 117
166 158 159 151 157 168 162 179 185 186 193 181 184 159 155 154 161 152 166 169 147 143 143 129 113 108 103 104 108 104 114 93 100 110 114 113 111 102 110 117 115 102 101
145 145 149 161 171 175 166 172 179 188 174 164 141 130 149 144 150 143 148 160 142 133 129 124 121 124 120 111 95 114 115 114 100 115 113 120 116 111 110 110 117 111 107
162 159 162 170 174 181 167 169 182 182 163 160 138 147 149 154 145 131 151 146 139 132 130 122 117 122 113 107 110 110 119 105 78 91 109 117 120 123 121 118 112 119 115
166 173 172 175 176 178 171 168 172 172 161 155 150 174 129 147 125 126 146 125 119 126 127 121 98 96 108 116 109 105 109 116 99 94 91 105 106 111 118 129 125 127 125
179 180 172 175 180 184 181 168 171 173 158 157 168 164 135 146 134 128 142 141 128 123 135 130 123 124 108 115 117 111 110 112 113 111 107 111 110 101 98 93 97 127 138
181 181 179 180 184 185 178 172 173 158 162 161 169 162 159 156 150 136 132 129 131 124 128 118 122 127 113 133 121 106 97 111 110 119 120 117 115 115 118 124 119 117 133
182 189 181 178 180 176 178 155 148 165 167 166 170 163 158 145 146 140 138 125 107 112 125 130 115 119 145 135 128 118 107 106 100 101 106 120 132 135 136 133 116 224 242
187 186 180 176 167 171 169 153 155 162 168 174 175 167 151 140 152 153 153 140 123 119 119 126 129 133 154 143 136 131 113 113 111 126 115 148 155 153 133 130 166 210 79
174 176 176 164 165 174 162 158 165 164 180 181 182 169 150 152 160 154 160 154 134 136 127 116 129 135 143 157 160 136 122 120 115 97 121 176 158 157 167 165 156 137 142
173 161 161 169 179 162 162 171 167 180 185 178 168 166 159 158 159 146 148 139 131 125 124 123 123 137 151 161 179 147 148 152 147 154 167 184 183 170 183 170 168 174 147
149 162 169 176 168 166 168 172 184 183 173 167 170 172 165 162 157 152 145 143 137 141 143 132 98 60 127 145 182 172 152 151 146 168 166 159 167 177 169 165 168 147 120
169 169 171 165 166 172 176 179 187 166 168 166 175 172 170 163 160 158 154 142 150 150 159 155 161 175 141 102 91 182 161 160 145 152 154 136 142 128 128 148 149 142 111
165 164 159 167 174 177 183 189 165 168 164 173 178 171 172 168 164 168 166 165 165 163 168 166 176 182 169 171 164 144 141 113 90 95 91 99 118 96 114 114 123 122 141
164 164 170 172 182 177 181 174 169 169 170 174 175 175 182 181 177 184 179 182 189 179 175 186 178 164 191 213 182 168 164 168 141 111 101 110 107 129 131 112 125 135 145
165 169 176 171 175 180 178 173 171 175 171 175 175 176 176 180 183 176 150 40 9 196 192 169 165 199 204 171 181 193 180 142 145 108 148 181 178 170 169 166 162 161 144